DW8790 Maspalomas ES current weather conditions

sailwx.info

Wind from 235 at 2 knots gusting 10

Air temperature 22.2° C
Dewpoint 14.1° C

Last reported at 2017-May-24 17:05 UTC.
Time now 2017-May-24 17:43 UTC

Location: N 27°46' W 015°34'.
View on Google Maps.

See reports from other nearby stations

  
Tides and Currents Weather Stations Pressure Air Temp Water Temp Dewpoint Dewpoint Depression Visibility Wind Speed Wind Dir Waves Ship Positions
date/time (UTC)wind fromknots sea level pressurealtimeterstation pressurevisibilityair tempwater tempwave heightnotes
2017-May-24 17:05 235 2 gusting 10 22.2
2017-May-24 17:00 222 4 gusting 6 22.2
2017-May-24 16:55 203 2 gusting 6 22.2
2017-May-24 16:50 196 6 gusting 11 22.2
2017-May-24 16:45 198 2 gusting 8 22.8
2017-May-24 16:40 236 6 gusting 8 22.8
2017-May-24 16:35 240 4 gusting 11 22.8
2017-May-24 16:30 265 6 gusting 12 22.8
2017-May-24 16:20 213 7 gusting 14 22.8
2017-May-24 16:15 211 5 gusting 10 22.2
2017-May-24 16:10 199 6 gusting 10 22.2
2017-May-24 16:05 180 6 gusting 13 22.2
2017-May-24 16:00 207 4 gusting 11 22.8
2017-May-24 15:55 168 5 gusting 8 22.2
2017-May-24 15:50 191 5 gusting 13 22.2
2017-May-24 15:45 161 6 gusting 12 22.2
2017-May-24 15:40 222 6 gusting 13 22.2
2017-May-24 15:35 193 6 gusting 13 22.8
2017-May-24 15:20 169 5 gusting 8 22.8
2017-May-24 15:15 198 7 gusting 11 22.8
2017-May-24 15:10 193 5 gusting 11 22.8
2017-May-24 15:05 193 6 gusting 12 22.8
2017-May-24 15:00 213 4 gusting 8 22.2
2017-May-24 14:55 179 6 gusting 10 22.8
2017-May-24 14:50 228 5 gusting 12 22.8
2017-May-24 14:45 178 5 gusting 11 23.3
2017-May-24 14:40 178 5 gusting 11 22.8
2017-May-24 14:35 178 2 gusting 11 23.3
2017-May-24 14:30 197 5 gusting 12 22.8
2017-May-24 14:25 177 3 gusting 10 22.8
2017-May-24 14:20 197 5 gusting 10 22.8
2017-May-24 14:15 176 5 gusting 10 23.3
2017-May-24 14:10 139 5 gusting 11 22.8
2017-May-24 14:05 177 6 gusting 10 22.8
2017-May-24 13:55 159 6 gusting 11 22.8
2017-May-24 13:50 155 4 gusting 10 22.2
2017-May-24 13:45 153 5 gusting 10 22.8
2017-May-24 13:40 180 5 gusting 10 22.8
2017-May-24 13:35 191 6 gusting 10 22.8
2017-May-24 13:30 248 5 gusting 11 22.8
2017-May-24 13:25 216 4 gusting 10 22.8
2017-May-24 13:20 191 4 gusting 10 22.8
2017-May-24 13:15 173 5 gusting 10 22.8
2017-May-24 13:10 155 6 gusting 10 22.2
2017-May-24 13:05 179 5 gusting 11 22.8
2017-May-24 13:00 182 5 gusting 10 22.8
2017-May-24 12:55 261 4 gusting 10 22.2
2017-May-24 12:45 169 4 gusting 10 21.7
2017-May-24 12:40 228 4 gusting 10 21.7
2017-May-24 12:35 180 4 gusting 10 22.2
2017-May-24 12:30 262 2 gusting 10 21.7
2017-May-24 12:25 298 6 gusting 12 22.2
2017-May-24 12:20 229 6 gusting 8 22.2
2017-May-24 12:15 172 5 gusting 10 22.2
2017-May-24 12:10 239 5 gusting 10 22.2
2017-May-24 12:05 254 3 gusting 12 22.8
2017-May-24 12:00 185 4 gusting 6 22.8
2017-May-24 11:55 193 6 gusting 10 22.2
2017-May-24 11:50 196 6 gusting 11 22.2
2017-May-24 11:45 180 4 gusting 8 22.2
2017-May-24 11:35 240 5 gusting 10 22.8
2017-May-24 11:30 192 3 gusting 10 22.2
2017-May-24 11:25 236 6 gusting 10 22.2
2017-May-24 11:20 264 5 gusting 10 22.2
2017-May-24 11:15 265 5 gusting 10 22.8
2017-May-24 11:10 204 4 gusting 10 22.8
2017-May-24 11:05 260 6 gusting 10 22.2
2017-May-24 11:00 212 4 gusting 8 22.2
2017-May-24 10:55 247 5 gusting 8 22.2
2017-May-24 10:50 244 4 gusting 7 22.2
2017-May-24 10:45 201 4 gusting 10 22.2
2017-May-24 10:40 184 4 gusting 6 22.2
2017-May-24 10:35 238 4 gusting 6 22.2
2017-May-24 10:30 188 4 gusting 8 21.7
2017-May-24 10:25 194 3 gusting 7 22.2
2017-May-24 10:20 250 5 gusting 10 22.2
2017-May-24 10:15 238 3 gusting 6 22.2
2017-May-24 10:10 194 5 gusting 8 22.2
2017-May-24 10:05 228 2 gusting 6 22.2
2017-May-24 10:00 201 4 gusting 10 22.2
2017-May-24 09:55 204 3 gusting 7 22.2
2017-May-24 09:50 227 2 gusting 6 22.2
2017-May-24 09:45 249 2 gusting 6 22.2
2017-May-24 09:40 204 2 gusting 6 22.2
2017-May-24 09:35 285 2 gusting 6 21.7
2017-May-24 09:30 160 2 gusting 6 21.7
2017-May-24 09:25 241 4 gusting 6 21.7
2017-May-24 09:15 197 1 gusting 4 21.1
2017-May-24 09:10 190 2 gusting 4 21.1
2017-May-24 09:05 193 1 gusting 5 21.1
2017-May-24 09:00 182 2 gusting 5 21.7
2017-May-24 08:55 275 2 gusting 5 21.7
2017-May-24 08:50 234 2 gusting 7 21.7
2017-May-24 08:45 211 2 gusting 6 22.2
2017-May-24 08:40 278 21.7
2017-May-24 08:35 278 0 gusting 4 21.1
2017-May-24 08:30 287 1 gusting 4 21.1
2017-May-24 08:25 305 21.1
2017-May-24 08:20 305 0 gusting 2 21.1
2017-May-24 08:15 305 0 gusting 1 21.1
2017-May-24 08:10 305 21.1
2017-May-24 08:05 305 20.6
2017-May-24 08:00 305 20.6
2017-May-24 07:55 305 20.6
2017-May-24 07:50 305 20.0
2017-May-24 07:45 305 20.0
2017-May-24 07:40 305 19.4
2017-May-24 07:35 305 19.4
2017-May-24 07:30 305 19.4
2017-May-24 07:25 305 18.9
2017-May-24 07:20 305 18.9
2017-May-24 07:15 305 18.9
2017-May-24 07:10 305 18.9
2017-May-24 07:05 305 18.9
2017-May-24 07:00 305 18.9
2017-May-24 06:55 305 18.9
2017-May-24 06:50 305 18.9
2017-May-24 06:45 305 18.9
2017-May-24 06:40 305 18.9
2017-May-24 06:35 305 18.3
2017-May-24 06:30 305 18.3
2017-May-24 06:25 305 0 gusting 2 18.3
2017-May-24 06:20 305 0 gusting 2 18.3
2017-May-24 06:15 305 18.3
2017-May-24 06:10 305 18.3
2017-May-24 06:05 305 18.3
2017-May-24 06:00 305 18.3
2017-May-24 05:55 305 18.3
2017-May-24 05:50 305 18.9
2017-May-24 05:45 305 18.9
2017-May-24 05:40 305 18.9
2017-May-24 05:35 305 18.9
2017-May-24 05:30 305 18.9
2017-May-24 05:25 305 18.9
2017-May-24 05:20 305 18.9
2017-May-24 05:15 305 18.9
2017-May-24 05:10 305 18.9
2017-May-24 05:05 305 18.9
2017-May-24 05:00 305 18.9
2017-May-24 04:55 305 18.9
2017-May-24 04:50 305 18.9
2017-May-24 04:45 305 18.9
2017-May-24 04:40 305 19.4
2017-May-24 04:35 305 19.4
2017-May-24 04:30 305 1 gusting 2 19.4
2017-May-24 04:25 305 19.4
2017-May-24 04:20 305 19.4
2017-May-24 04:15 305 19.4
2017-May-24 04:05 309 1 gusting 4 19.4
2017-May-24 04:00 337 2 gusting 4 19.4
2017-May-24 03:55 290 2 gusting 4 19.4
2017-May-24 03:50 299 2 gusting 6 19.4
2017-May-24 03:45 306 4 gusting 6 19.4
2017-May-24 03:40 303 3 gusting 5 19.4
2017-May-24 03:30 254 4 gusting 6 19.4
2017-May-24 03:20 281 2 gusting 6 20.0
2017-May-24 03:15 279 2 gusting 5 20.0
2017-May-24 03:10 268 2 gusting 6 20.0
2017-May-24 03:05 280 1 gusting 4 20.0
2017-May-24 03:00 267 1 gusting 6 20.0
2017-May-24 02:55 255 2 gusting 6 20.0
2017-May-24 02:50 270 1 gusting 5 20.0
2017-May-24 02:40 275 4 gusting 6 20.0
2017-May-24 02:35 257 3 gusting 5 20.0
2017-May-24 02:30 272 4 gusting 6 20.6
2017-May-24 02:25 253 4 gusting 6 20.6
2017-May-24 02:20 268 3 gusting 5 20.6
2017-May-24 02:15 281 0 gusting 2 20.6
2017-May-24 02:10 281 0 gusting 1 20.6
2017-May-24 02:05 281 20.6
2017-May-24 02:00 281 20.6
2017-May-24 01:55 281 0 gusting 2 20.6
2017-May-24 01:50 281 2 gusting 2 20.6
2017-May-24 01:45 281 20.6
2017-May-24 01:40 281 20.6
2017-May-24 01:35 281 20.6
2017-May-24 01:30 281 1 gusting 4 20.6
2017-May-24 01:25 281 1 gusting 4 20.6
2017-May-24 01:20 293 2 gusting 4 20.6
2017-May-24 01:15 286 1 gusting 5 20.6
2017-May-24 01:10 254 2 gusting 4 20.6
2017-May-24 01:05 252 1 gusting 2 20.6
2017-May-24 01:00 267 1 gusting 4 20.6
2017-May-24 00:55 240 0 gusting 2 20.6
2017-May-24 00:45 240 2 gusting 2 20.6
2017-May-24 00:40 240 0 gusting 2 20.6
2017-May-24 00:35 240 1 gusting 2 20.6
2017-May-24 00:30 240 0 gusting 1 20.6
2017-May-24 00:25 240 0 gusting 2 20.6
2017-May-24 00:20 240 2 gusting 5 20.6
2017-May-24 00:15 292 20.6
2017-May-24 00:10 292 20.6
2017-May-24 00:05 292 20.6
2017-May-24 00:00 292 20.6
2017-May-23 23:55 292 20.6
2017-May-23 23:50 292 20.6
2017-May-23 23:40 292 20.6
2017-May-23 23:35 292 0 gusting 2 20.6
2017-May-23 23:30 306 20.6
2017-May-23 23:25 306 20.6
2017-May-23 23:20 306 20.6
2017-May-23 23:15 306 20.6
2017-May-23 23:10 306 0 gusting 2 20.6
2017-May-23 23:05 303 1 gusting 4 20.6
2017-May-23 23:00 292 3 gusting 5 20.6
2017-May-23 22:55 280 0 gusting 2 20.6
2017-May-23 22:50 306 1 gusting 2 20.6
2017-May-23 22:45 254 0 gusting 2 20.6
2017-May-23 22:40 267 2 gusting 6 20.6
2017-May-23 22:35 296 3 gusting 6 20.6
2017-May-23 22:30 249 2 gusting 4 20.6
2017-May-23 22:25 250 3 gusting 5 20.6
2017-May-23 22:20 250 3 gusting 5 20.6
2017-May-23 22:15 238 4 gusting 6 20.6
2017-May-23 22:10 207 2 gusting 5 20.6
2017-May-23 22:05 205 1 gusting 5 20.6
2017-May-23 21:55 225 1 gusting 4 20.6
2017-May-23 21:50 225 1 gusting 2 20.6
2017-May-23 21:45 225 0 gusting 2 20.6
2017-May-23 21:40 225 0 gusting 2 20.6
2017-May-23 21:35 224 1 gusting 2 20.6
2017-May-23 21:30 211 2 gusting 5 20.6
2017-May-23 21:25 246 2 gusting 5 20.6
2017-May-23 21:20 234 2 gusting 5 20.6
2017-May-23 21:15 230 2 gusting 5 20.6
2017-May-23 21:10 228 2 gusting 6 20.6
2017-May-23 21:05 184 4 gusting 6 20.6
2017-May-23 21:00 192 2 gusting 6 20.6
2017-May-23 20:55 190 2 gusting 5 20.6
2017-May-23 20:50 220 4 gusting 6 20.6
2017-May-23 20:45 284 4 gusting 7 20.6
2017-May-23 20:40 239 1 gusting 6 20.6
2017-May-23 20:35 173 4 gusting 6 20.6
2017-May-23 20:30 233 5 gusting 7 20.6
2017-May-23 20:25 231 5 gusting 7 20.6
2017-May-23 20:20 247 4 gusting 6 20.6
2017-May-23 20:15 253 4 gusting 7 20.6
2017-May-23 20:10 228 4 gusting 6 20.6
2017-May-23 20:05 268 5 gusting 8 20.6
2017-May-23 20:00 237 5 gusting 7 20.6
2017-May-23 19:55 246 5 gusting 6 20.6
2017-May-23 19:50 235 5 gusting 10 20.6
2017-May-23 19:45 258 6 gusting 10 20.6
2017-May-23 19:40 252 6 gusting 10 20.6
2017-May-23 19:35 242 6 gusting 10 20.6
2017-May-23 19:30 230 5 gusting 10 21.1
2017-May-23 19:25 250 6 gusting 10 21.1
2017-May-23 19:20 247 6 gusting 10 21.1
2017-May-23 19:15 236 4 gusting 10 21.1
2017-May-23 19:10 290 6 gusting 10 21.1
2017-May-23 19:05 249 5 gusting 7 21.1
2017-May-23 19:00 244 5 gusting 10 21.1
2017-May-23 18:55 195 4 gusting 10 21.1
2017-May-23 18:50 287 6 gusting 8 21.1
2017-May-23 18:45 254 6 gusting 8 21.1
2017-May-23 18:40 228 6 gusting 10 21.1
2017-May-23 18:35 235 6 gusting 10 21.7
2017-May-23 18:30 244 6 gusting 10 21.7
2017-May-23 18:25 225 4 gusting 10 21.7
2017-May-23 18:20 248 7 gusting 11 21.7
2017-May-23 18:15 224 5 gusting 10 21.7
2017-May-23 18:10 253 6 gusting 10 21.1
2017-May-23 18:05 263 6 gusting 12 21.1
2017-May-23 18:00 259 6 gusting 11 21.1
2017-May-23 17:55 252 6 gusting 10 21.7
2017-May-23 17:50 223 6 gusting 12 21.7
2017-May-23 17:45 269 5 gusting 7 21.7
2017-May-23 17:40 256 6 gusting 11 21.7
2017-May-23 17:35 233 5 gusting 8 21.7
2017-May-23 17:30 229 5 gusting 12 22.2
2017-May-23 17:25 233 5 gusting 7 22.2
2017-May-23 17:20 231 5 gusting 10 21.7
2017-May-23 17:15 238 7 gusting 11 21.7
2017-May-23 17:10 261 6 gusting 11 22.2
2017-May-23 17:05 229 7 gusting 11 21.7
2017-May-23 17:00 223 6 gusting 10 22.2
2017-May-23 16:55 266 6 gusting 12 22.2
2017-May-23 16:50 252 7 gusting 13 22.2
2017-May-23 16:45 245 6 gusting 10 22.2
2017-May-23 16:40 268 6 gusting 10 22.2
2017-May-23 16:35 264 7 gusting 12 22.2
2017-May-23 16:30 248 5 gusting 12 22.2
2017-May-23 16:25 266 8 gusting 11 22.8
2017-May-23 16:20 260 6 gusting 13 22.2
2017-May-23 16:15 229 7 gusting 13 22.2
2017-May-23 16:10 242 6 gusting 11 22.8
2017-May-23 16:05 268 7 gusting 12 22.2
2017-May-23 16:00 189 4 gusting 8 22.8
2017-May-23 15:55 190 4 gusting 13 22.8
2017-May-23 15:50 257 6 gusting 11 22.8
2017-May-23 15:45 232 6 gusting 11 22.8
2017-May-23 15:40 218 6 gusting 10 22.8
2017-May-23 15:35 239 6 gusting 12 22.8
2017-May-23 15:30 277 4 gusting 10 22.8
2017-May-23 15:20 247 5 gusting 10 23.3
2017-May-23 15:15 207 4 gusting 10 22.8
2017-May-23 15:10 237 6 gusting 10 22.8
2017-May-23 15:05 229 5 gusting 10 22.8
2017-May-23 15:00 200 5 gusting 10 22.8
2017-May-23 14:55 237 6 gusting 12 22.8
2017-May-23 14:50 240 8 gusting 13 23.3
2017-May-23 14:45 234 8 gusting 13 22.8
2017-May-23 14:40 225 8 gusting 13 23.3
2017-May-23 14:35 232 5 gusting 11 23.3
2017-May-23 14:30 242 6 gusting 13 23.3
2017-May-23 14:25 259 7 gusting 12 23.3
2017-May-23 14:20 246 6 gusting 10 23.3
2017-May-23 14:15 213 6 gusting 10 23.3
2017-May-23 14:10 236 7 gusting 13 22.8
2017-May-23 14:00 236 6 gusting 13 22.8
2017-May-23 13:55 255 9 gusting 15 23.3
2017-May-23 13:50 260 7 gusting 12 23.3
2017-May-23 13:45 230 6 gusting 11 22.8
2017-May-23 13:40 251 6 gusting 12 22.8
2017-May-23 13:35 258 4 gusting 12 22.8
2017-May-23 13:30 272 6 gusting 11 23.3
2017-May-23 13:25 271 5 gusting 10 22.8
2017-May-23 13:20 257 6 gusting 12 22.8
2017-May-23 13:15 235 6 gusting 12 22.8
2017-May-23 13:10 234 6 gusting 10 22.8
2017-May-23 13:05 239 7 gusting 11 22.8
2017-May-23 13:00 247 5 gusting 11 22.8
2017-May-23 12:55 235 6 gusting 11 22.8
2017-May-23 12:45 264 7 gusting 13 22.8
2017-May-23 12:40 267 7 gusting 10 22.8
2017-May-23 12:35 265 4 gusting 10 22.8
2017-May-23 12:30 275 6 gusting 11 22.8
2017-May-23 12:25 246 6 gusting 11 22.8
2017-May-23 12:20 247 8 gusting 11 22.8
2017-May-23 12:15 259 7 gusting 12 22.8
2017-May-23 12:10 264 7 gusting 11 22.8
2017-May-23 12:05 259 6 gusting 12 22.8
2017-May-23 12:00 261 7 gusting 13 22.2
2017-May-23 11:55 248 6 gusting 12 22.2
2017-May-23 11:50 260 5 gusting 13 22.2
2017-May-23 11:45 233 6 gusting 13 22.2
2017-May-23 11:40 235 6 gusting 12 22.2
2017-May-23 11:35 215 8 gusting 12 21.7
2017-May-23 11:30 195 6 gusting 10 22.2
2017-May-23 11:25 223 5 gusting 10 21.7
2017-May-23 11:20 258 6 gusting 11 22.2
2017-May-23 11:15 225 6 gusting 11 21.7
2017-May-23 11:10 234 6 gusting 11 21.7
2017-May-23 11:05 225 4 gusting 10 22.2
2017-May-23 11:00 168 2 gusting 10 22.2
2017-May-23 10:55 185 4 gusting 10 22.2
2017-May-23 10:50 213 4 gusting 7 22.2
2017-May-23 10:45 222 3 gusting 7 21.7
2017-May-23 10:40 161 2 gusting 6 21.7
2017-May-23 10:35 174 4 gusting 7 21.7
2017-May-23 10:30 171 3 gusting 6 21.7
2017-May-23 10:25 221 3 gusting 6 21.7
2017-May-23 10:20 183 3 gusting 6 21.1
2017-May-23 10:15 203 3 gusting 6 21.1
2017-May-23 10:10 197 3 gusting 6 21.1
2017-May-23 10:05 226 5 gusting 8 21.7
2017-May-23 10:00 196 4 gusting 6 21.7
2017-May-23 09:55 216 4 gusting 6 21.7
2017-May-23 09:50 212 5 gusting 6 21.7
2017-May-23 09:45 149 3 gusting 5 21.7
2017-May-23 09:40 169 1 gusting 4 21.7
2017-May-23 09:35 187 2 gusting 6 21.1
2017-May-23 09:30 242 2 gusting 6 21.1
2017-May-23 09:25 218 2 gusting 6 21.1
2017-May-23 09:20 234 6 gusting 7 21.1
2017-May-23 09:15 226 2 gusting 6 21.7
2017-May-23 09:10 222 4 gusting 6 21.7
2017-May-23 09:05 259 4 gusting 7 21.7
2017-May-23 09:00 170 0 gusting 2 21.7
2017-May-23 08:55 276 1 gusting 6 21.7
2017-May-23 08:50 273 21.7
2017-May-23 08:45 284 21.1
2017-May-23 08:40 284 1 gusting 4 21.1
2017-May-23 08:35 255 2 gusting 4 21.1
2017-May-23 08:30 262 2 gusting 4 20.6
2017-May-23 08:25 264 2 gusting 4 20.6
2017-May-23 08:20 256 2 gusting 4 20.6
2017-May-23 08:15 287 1 gusting 4 20.6
2017-May-23 08:10 261 2 gusting 5 20.6
2017-May-23 08:05 302 3 gusting 5 20.6
2017-May-23 08:00 290 2 gusting 4 20.6
2017-May-23 07:55 266 1 gusting 5 20.6
2017-May-23 07:50 282 1 gusting 4 20.6
2017-May-23 07:45 290 2 gusting 5 20.6
2017-May-23 07:40 306 2 gusting 6 20.6
2017-May-23 07:35 327 1 gusting 2 20.6
2017-May-23 07:30 345 0 gusting 4 20.6
2017-May-23 07:25 299 1 gusting 4 20.6
2017-May-23 07:20 300 2 gusting 4 20.6
2017-May-23 07:15 293 1 gusting 4 20.0
2017-May-23 07:10 315 2 gusting 5 20.0
2017-May-23 07:05 300 2 gusting 4 20.0
2017-May-23 07:00 293 1 gusting 2 20.0
2017-May-23 06:55 310 2 gusting 4 20.0
2017-May-23 06:50 304 2 gusting 2 20.0
2017-May-23 06:45 302 1 gusting 4 20.0
2017-May-23 06:40 282 1 gusting 2 20.0
2017-May-23 06:35 282 0 gusting 2 20.0
2017-May-23 06:30 286 0 gusting 4 20.0
2017-May-23 06:25 257 20.0
2017-May-23 06:20 257 0 gusting 2 20.0
2017-May-23 06:15 257 0 gusting 2 20.0
2017-May-23 06:10 250 1 gusting 2 20.0
2017-May-23 06:05 249 1 gusting 2 20.0
2017-May-23 06:00 249 20.0
2017-May-23 05:55 249 1 gusting 2 20.0
2017-May-23 05:50 249 1 gusting 2 20.0
2017-May-23 05:45 249 1 gusting 2 20.0
2017-May-23 05:40 249 1 gusting 2 20.0
2017-May-23 05:35 249 1 gusting 2 20.0
2017-May-23 05:30 249 1 gusting 2 20.0
2017-May-23 05:25 249 1 gusting 2 20.0
2017-May-23 05:20 249 20.0
2017-May-23 05:10 249 0 gusting 2 20.0
2017-May-23 05:05 249 1 gusting 2 20.0
2017-May-23 05:00 249 0 gusting 2 20.0
2017-May-23 04:55 249 0 gusting 1 20.0
2017-May-23 04:50 249 20.0
2017-May-23 04:45 249 20.0
2017-May-23 04:40 249 0 gusting 0 20.0
2017-May-23 04:35 249 20.0
2017-May-23 04:30 249 0 gusting 2 20.0
2017-May-23 04:25 249 1 gusting 2 20.0
2017-May-23 04:20 249 20.0
2017-May-23 04:15 249 0 gusting 1 20.0
2017-May-23 04:10 249 20.0
2017-May-23 04:05 249 0 gusting 2 20.0
2017-May-23 04:00 249 0 gusting 2 20.0
2017-May-23 03:55 249 20.0
2017-May-23 03:50 249 20.0
2017-May-23 03:45 249 0 gusting 2 20.0
2017-May-23 03:40 249 2 gusting 2 20.0
2017-May-23 00:40 244 3 gusting 5 20.6
2017-May-23 00:35 249 2 gusting 5 20.6
2017-May-23 00:30 230 2 gusting 5 20.6
2017-May-23 00:25 240 3 gusting 5 20.6
2017-May-23 00:20 232 2 gusting 4 20.6
2017-May-23 00:15 244 2 gusting 6 20.6
2017-May-23 00:10 213 3 gusting 5 20.6
2017-May-23 00:05 253 2 gusting 5 20.6
2017-May-23 00:00 239 2 gusting 4 20.6
2017-May-22 23:55 239 1 gusting 5 20.6
2017-May-22 23:50 235 2 gusting 5 20.6
2017-May-22 23:45 240 2 gusting 2 20.6
2017-May-22 23:40 240 1 gusting 4 20.6
2017-May-22 23:35 240 0 gusting 2 20.6
2017-May-22 23:30 240 1 gusting 2 20.6
2017-May-22 23:25 240 1 gusting 4 20.6
2017-May-22 23:20 240 1 gusting 2 20.6
2017-May-22 23:15 246 2 gusting 4 20.6
2017-May-22 23:10 204 1 gusting 4 20.6
2017-May-22 23:05 254 0 gusting 2 20.6
2017-May-22 23:00 254 1 gusting 2 20.6
2017-May-22 22:55 254 1 gusting 4 20.6
2017-May-22 22:50 246 2 gusting 5 20.6
2017-May-22 22:45 221 1 gusting 4 20.6
2017-May-22 22:40 222 1 gusting 5 20.6
2017-May-22 22:35 248 1 gusting 4 20.6
2017-May-22 22:30 216 2 gusting 5 20.6
2017-May-22 22:25 177 2 gusting 4 20.6
2017-May-22 22:20 192 2 gusting 6 21.1
2017-May-22 22:15 229 2 gusting 5 21.1
2017-May-22 22:10 234 1 gusting 4 21.1
2017-May-22 22:05 262 2 gusting 4 21.1
2017-May-22 22:00 254 1 gusting 2 21.1
2017-May-22 21:55 256 1 gusting 5 21.1
2017-May-22 21:50 244 2 gusting 5 21.1
2017-May-22 21:45 245 21.1
2017-May-22 21:40 284 1 gusting 4 21.1
2017-May-22 21:35 303 2 gusting 6 21.1
2017-May-22 21:30 274 4 gusting 6 21.1
2017-May-22 21:25 294 3 gusting 6 21.1
2017-May-22 21:20 295 4 gusting 8 21.1
2017-May-22 21:15 287 3 gusting 5 21.1
2017-May-22 21:10 277 3 gusting 6 21.1
2017-May-22 21:05 254 4 gusting 6 21.1
2017-May-22 21:00 249 2 gusting 6 21.1
2017-May-22 20:55 272 4 gusting 6 21.1
2017-May-22 20:50 264 2 gusting 6 21.1
2017-May-22 20:45 264 2 gusting 5 21.1
2017-May-22 20:40 260 1 gusting 7 21.1
2017-May-22 20:35 294 2 gusting 7 21.1
2017-May-22 20:30 259 2 gusting 5 21.1
2017-May-22 20:25 250 4 gusting 6 21.1
2017-May-22 20:20 241 1 gusting 4 21.1
2017-May-22 20:15 241 2 gusting 4 21.1
2017-May-22 20:10 259 2 gusting 5 21.1
2017-May-22 20:05 244 2 gusting 5 21.1
2017-May-22 20:00 242 2 gusting 4 21.1
2017-May-22 19:55 259 1 gusting 2 21.1
2017-May-22 19:50 250 1 gusting 4 21.1
2017-May-22 19:45 250 2 gusting 5 21.1
2017-May-22 19:40 254 2 gusting 5 21.1
2017-May-22 19:30 247 4 gusting 6 21.1
2017-May-22 19:25 263 2 gusting 5 21.1
2017-May-22 19:20 308 3 gusting 6 21.1
2017-May-22 19:15 262 2 gusting 6 21.1
2017-May-22 19:10 285 4 gusting 8 21.1
2017-May-22 19:05 247 5 gusting 7 21.1
2017-May-22 19:00 225 5 gusting 6 21.7
2017-May-22 18:55 251 3 gusting 7 21.7
2017-May-22 18:50 216 4 gusting 6 21.7
2017-May-22 18:45 217 4 gusting 7 21.7
2017-May-22 18:40 206 2 gusting 6 21.7
2017-May-22 18:35 231 5 gusting 8 21.7
2017-May-22 18:30 200 4 gusting 7 21.1
2017-May-22 18:25 214 4 gusting 11 21.7
2017-May-22 18:20 197 2 gusting 10 22.2
2017-May-22 18:15 230 2 gusting 8 22.2
2017-May-22 18:10 194 4 gusting 10 22.2
2017-May-22 18:05 227 5 gusting 11 22.2
2017-May-22 18:00 235 5 gusting 10 21.7
2017-May-22 17:55 168 6 gusting 12 22.2
2017-May-22 17:50 184 6 gusting 11 22.2
2017-May-22 17:45 233 4 gusting 10 22.2
2017-May-22 17:40 223 5 gusting 10 22.2
2017-May-22 17:35 192 4 gusting 8 22.2
2017-May-22 17:30 177 5 gusting 6 22.2
2017-May-22 17:25 200 5 gusting 8 22.2
2017-May-22 17:20 190 6 gusting 10 22.2
2017-May-22 17:15 190 4 gusting 8 22.2
2017-May-22 17:10 196 6 gusting 12 22.2
2017-May-22 17:05 172 5 gusting 10 22.8
2017-May-22 17:00 199 4 gusting 8 22.8